When you browse on this site, cookies collect data to enhance your experience and personalize the content and advertising you see.
Visit our Privacy Policy to learn more. By continuing to use the site, you agree to this use of cookies and data.
  • In Czech Republic
  • List of Countries
  • For 7 days
  • Water Temperature
  • Weather Map
  • Weather Widgets
  • user-avatar
    Login

    Hourly Weather Bima

    Today, 31 May, Sunday

    Time Temperature Precipitation Wind Pressure Humidity
    00:00 +18°C° 0.1 mm 3 mps 748 mmHg 89%
    01:00 +17°C° 0.9 mm 2 mps 748 mmHg 91%
    02:00 +17°C° 0.9 mm 2 mps 748 mmHg 93%
    03:00 +18°C° 0 mm 1 mps 747 mmHg 93%
    04:00 +18°C° 0.2 mm 1 mps 747 mmHg 92%
    05:00 +19°C° 0.2 mm 1 mps 746 mmHg 91%
    06:00 +19°C° 0.2 mm 1 mps 746 mmHg 91%
    07:00 +19°C° 0.5 mm 2 mps 746 mmHg 87%
    08:00 +20°C° 0.5 mm 2 mps 745 mmHg 84%
    09:00 +21°C° 0 mm 3 mps 746 mmHg 76%
    10:00 +21°C° 1.6 mm 3 mps 745 mmHg 75%
    11:00 +22°C° 1.6 mm 3 mps 745 mmHg 74%
    12:00 +23°C° 1.6 mm 2 mps 745 mmHg 73%
    13:00 +22°C° 2.5 mm 3 mps 745 mmHg 75%
    14:00 +22°C° 2.5 mm 3 mps 745 mmHg 76%
    15:00 +22°C° 0 mm 4 mps 745 mmHg 72%
    16:00 +21°C° 1.4 mm 4 mps 745 mmHg 76%
    17:00 +20°C° 1.4 mm 4 mps 745 mmHg 80%
    18:00 +19°C° 1.4 mm 5 mps 744 mmHg 84%
    19:00 +17°C° 0.7 mm 4 mps 745 mmHg 88%
    20:00 +16°C° 0.7 mm 3 mps 745 mmHg 91%
    21:00 +13°C° 0.7 mm 3 mps 746 mmHg 95%
    22:00 +12°C° 0.3 mm 3 mps 745 mmHg 95%
    23:00 +13°C° 0.3 mm 2 mps 745 mmHg 95%

    Tomorrow, 1 June, Monday

    Time Temperature Precipitation Wind Pressure Humidity
    00:00 +12°C° 0.3 mm 2 mps 745 mmHg 96%
    01:00 +12°C° 0.1 mm 2 mps 746 mmHg 96%
    02:00 +12°C° 0.1 mm 1 mps 746 mmHg 96%
    03:00 +12°C° 0.1 mm 1 mps 746 mmHg 96%
    04:00 +12°C° 0.1 mm 1 mps 746 mmHg 95%
    05:00 +12°C° 0.1 mm 1 mps 746 mmHg 94%
    06:00 +12°C° 0.1 mm 2 mps 747 mmHg 93%
    07:00 +12°C° 0.1 mm 2 mps 747 mmHg 93%
    08:00 +12°C° 0.1 mm 2 mps 748 mmHg 93%
    09:00 +12°C° 0.1 mm 2 mps 749 mmHg 92%
    10:00 +12°C° 0.2 mm 2 mps 749 mmHg 92%
    11:00 +11°C° 0.2 mm 3 mps 749 mmHg 92%
    12:00 +11°C° 0.2 mm 3 mps 750 mmHg 92%
    13:00 +11°C° 0.1 mm 3 mps 750 mmHg 91%
    14:00 +11°C° 0.1 mm 3 mps 751 mmHg 90%
    15:00 +11°C° 0.1 mm 3 mps 751 mmHg 90%
    16:00 +11°C° 0 mm 3 mps 751 mmHg 88%
    17:00 +11°C° 0 mm 3 mps 751 mmHg 87%
    18:00 +12°C° 0 mm 3 mps 752 mmHg 86%
    19:00 +11°C° 0 mm 3 mps 752 mmHg 88%
    20:00 +10°C° 0 mm 2 mps 753 mmHg 90%
    21:00 +9°C° 0 mm 2 mps 753 mmHg 92%
    22:00 +9°C° 0 mm 2 mps 753 mmHg 93%
    23:00 +8°C° 0 mm 2 mps 753 mmHg 93%

    Day after tomorrow, 2 June, Tuesday

    Time Temperature Precipitation Wind Pressure Humidity
    00:00 +8°C° 0 mm 2 mps 753 mmHg 93%
    01:00 +7°C° 0 mm 2 mps 753 mmHg 93%
    02:00 +7°C° 0 mm 2 mps 754 mmHg 94%
    03:00 +7°C° 0 mm 3 mps 754 mmHg 94%
    04:00 +8°C° 0 mm 3 mps 754 mmHg 91%
    05:00 +9°C° 0 mm 3 mps 754 mmHg 88%
    06:00 +10°C° 0 mm 3 mps 754 mmHg 86%
    07:00 +11°C° 0 mm 3 mps 754 mmHg 81%
    08:00 +12°C° 0 mm 4 mps 754 mmHg 77%
    09:00 +14°C° 0 mm 4 mps 755 mmHg 73%
    10:00 +14°C° 0 mm 4 mps 754 mmHg 71%
    11:00 +15°C° 0 mm 4 mps 754 mmHg 70%
    12:00 +17°C° 0 mm 4 mps 754 mmHg 68%
    13:00 +17°C° 0 mm 4 mps 754 mmHg 68%
    14:00 +17°C° 0 mm 4 mps 754 mmHg 67%
    15:00 +18°C° 0 mm 4 mps 754 mmHg 67%
    16:00 +17°C° 0 mm 4 mps 754 mmHg 71%
    17:00 +16°C° 0 mm 3 mps 754 mmHg 75%
    18:00 +16°C° 0 mm 3 mps 753 mmHg 78%
    19:00 +14°C° 0 mm 3 mps 754 mmHg 80%
    20:00 +14°C° 0 mm 3 mps 754 mmHg 81%
    21:00 +13°C° 0 mm 3 mps 754 mmHg 82%
    22:00 +12°C° 0 mm 3 mps 754 mmHg 84%
    23:00 +12°C° 0 mm 3 mps 754 mmHg 86%

    3 June, Wednesday

    Time Temperature Precipitation Wind Pressure Humidity
    00:00 +11°C° 0 mm 3 mps 753 mmHg 88%
    01:00 +11°C° 0 mm 3 mps 754 mmHg 88%
    02:00 +10°C° 0 mm 3 mps 754 mmHg 88%
    03:00 +10°C° 0 mm 4 mps 754 mmHg 88%
    04:00 +10°C° 0 mm 4 mps 754 mmHg 86%
    05:00 +11°C° 0 mm 4 mps 754 mmHg 84%
    06:00 +10°C° 0 mm 5 mps 754 mmHg 83%
    07:00 +13°C° 0 mm 5 mps 754 mmHg 79%
    08:00 +14°C° 0 mm 5 mps 754 mmHg 75%
    09:00 +15°C° 0 mm 5 mps 754 mmHg 71%
    10:00 +16°C° 0 mm 5 mps 754 mmHg 68%
    11:00 +17°C° 0 mm 5 mps 754 mmHg 66%
    12:00 +19°C° 0 mm 5 mps 754 mmHg 63%
    13:00 +19°C° 0 mm 5 mps 754 mmHg 63%
    14:00 +19°C° 0 mm 4 mps 754 mmHg 62%
    15:00 +19°C° 0 mm 4 mps 754 mmHg 61%
    16:00 +19°C° 0 mm 4 mps 754 mmHg 66%
    17:00 +18°C° 0 mm 4 mps 754 mmHg 70%
    18:00 +18°C° 0 mm 4 mps 753 mmHg 74%
    19:00 +16°C° 0 mm 3 mps 754 mmHg 76%
    20:00 +14°C° 0 mm 3 mps 754 mmHg 78%
    21:00 +13°C° 0 mm 3 mps 754 mmHg 80%
    22:00 +12°C° 0 mm 4 mps 754 mmHg 80%
    23:00 +12°C° 0 mm 4 mps 754 mmHg 79%

    4 June, Thursday

    Time Temperature Precipitation Wind Pressure Humidity
    00:00 +11°C° 0 mm 4 mps 754 mmHg 79%
    01:00 +11°C° 0 mm 4 mps 754 mmHg 78%
    02:00 +10°C° 0 mm 4 mps 754 mmHg 78%
    03:00 +10°C° 0 mm 4 mps 754 mmHg 77%
    04:00 +9°C° 0 mm 5 mps 754 mmHg 75%
    05:00 +10°C° 0 mm 5 mps 754 mmHg 74%
    06:00 +11°C° 0 mm 6 mps 754 mmHg 72%
    07:00 +13°C° 0 mm 6 mps 753 mmHg 70%
    08:00 +15°C° 0 mm 6 mps 753 mmHg 67%
    09:00 +16°C° 0 mm 6 mps 753 mmHg 65%
    10:00 +17°C° 0 mm 6 mps 753 mmHg 63%
    11:00 +19°C° 0 mm 6 mps 753 mmHg 62%
    12:00 +20°C° 0 mm 6 mps 753 mmHg 60%
    13:00 +20°C° 0 mm 6 mps 752 mmHg 61%
    14:00 +20°C° 0 mm 6 mps 752 mmHg 61%
    15:00 +21°C° 0 mm 5 mps 752 mmHg 62%
    16:00 +20°C° 0 mm 5 mps 752 mmHg 67%
    17:00 +20°C° 0 mm 4 mps 752 mmHg 72%
    18:00 +20°C° 0 mm 4 mps 751 mmHg 76%
    19:00 +19°C° 0 mm 4 mps 751 mmHg 79%
    20:00 +17°C° 0 mm 4 mps 751 mmHg 81%
    21:00 +15°C° 0 mm 5 mps 751 mmHg 83%
    22:00 +15°C° 0 mm 5 mps 751 mmHg 83%
    23:00 +15°C° 0 mm 5 mps 751 mmHg 83%

    5 June, Friday

    Time Temperature Precipitation Wind Pressure Humidity
    00:00 +15°C° 0 mm 5 mps 751 mmHg 83%
    01:00 +15°C° 0.2 mm 5 mps 751 mmHg 85%
    02:00 +14°C° 0.2 mm 5 mps 751 mmHg 87%
    03:00 +14°C° 0.2 mm 5 mps 751 mmHg 89%
    04:00 +14°C° 1.7 mm 6 mps 751 mmHg 91%
    05:00 +14°C° 1.7 mm 7 mps 751 mmHg 92%
    06:00 +13°C° 1.7 mm 8 mps 751 mmHg 93%
    07:00 +13°C° 1.1 mm 8 mps 751 mmHg 93%
    08:00 +13°C° 1.1 mm 8 mps 751 mmHg 94%
    09:00 +13°C° 1.1 mm 8 mps 751 mmHg 94%
    10:00 +14°C° 0.8 mm 7 mps 751 mmHg 93%
    11:00 +15°C° 0.8 mm 7 mps 751 mmHg 93%
    12:00 +15°C° 0.8 mm 7 mps 751 mmHg 93%
    13:00 +15°C° 0.1 mm 7 mps 751 mmHg 93%
    14:00 +15°C° 0.1 mm 6 mps 751 mmHg 93%
    15:00 +15°C° 0.1 mm 6 mps 751 mmHg 93%
    16:00 +15°C° 0 mm 6 mps 751 mmHg 92%
    17:00 +15°C° 0 mm 5 mps 751 mmHg 92%
    18:00 +15°C° 0 mm 5 mps 751 mmHg 92%
    19:00 +15°C° 0.1 mm 5 mps 751 mmHg 93%
    20:00 +15°C° 0.1 mm 4 mps 751 mmHg 93%
    21:00 +15°C° 0.1 mm 4 mps 752 mmHg 94%
    22:00 +15°C° 0.5 mm 4 mps 752 mmHg 95%
    23:00 +15°C° 0.5 mm 4 mps 752 mmHg 95%
    Show more